Terug naar catalogus

SL-8 DEB

ActiefLEO
NORAD 39702·DEBRIS·🇷🇺 Russia

Gelanceerd Feb 12, 1991 vanaf Plesetsk Cosmodrome

Loading…

Volgende Passages (komende 24 uur)

TLE

VerouderdSource: Space-Track

Epoch: Sep 5, 2026, 21:18 UTC

1 39702U 91009DR  26248.88804280  .00000174  00000-0  18241-2 0  9990
2 39702  74.2297  75.4594 0187928  94.7251 267.5269 12.14780750467314

Volg SL-8 DEB in realtime met AllMySat

Download on the App Store